Easton, MD

5:54 AM EDT on May 21, 2018 (GMT -0400)
Easton / Newnam

Weather History for KESN - December, 2014

Change the Weather History Date:

Saturday, December 20, 2014

  Actual Average Record
Temperature  
Mean Temperature 34 °F -  
Max Temperature 39 °F 50 °F 65 °F (1957)
Min Temperature 28 °F 30 °F 10 °F (1950)
Degree Days  
Heating Degree Days 32    
Moisture  
Dew Point 27 °F    
Average Humidity 80    
Maximum Humidity 89    
Minimum Humidity 61    
Precipitation  
Precipitation 0.00 in - - ()
Sea Level Pressure  
Sea Level Pressure 30.30 in    
Wind  
Wind Speed 2 mph (NNW)    
Max Wind Speed 6 mph    
Max Gust Speed -    
Visibility 10 miles    
Events      
Averages and records for this station are not official NWS values.
T = Trace of Precipitation, MM = Missing Value Source: NWS Daily Summary

Daily Weather History Graph

Daily Weather History Graph

Search for Another Location

Airport or City:

Astronomy

Dec. 20, 2014 Rise Set
Actual Time 7:18 AM EST 4:45 PM EST
Civil Twilight 6:48 AM EST 5:15 PM EST
Nautical Twilight 6:15 AM EST 5:48 PM EST
Astronomical Twilight 5:42 AM EST 6:21 PM EST
Moon 5:33 AM EST (12/20) 3:53 PM EST (12/20)
Length of Visible Light 10h 26m
Length of Day
9h 26m
Waning Crescent, 2% of the Moon is Illuminated
Dec 20
Waning Crescent
Dec 21
New
Dec 28
First Quarter
Jan 4
Full
Jan 13
Last Quarter

Hourly Weather History & Observations

Time (EST) Temp. Windchill Dew Point Humidity Pressure Visibility Wind Dir Wind Speed Gust Speed Precip Events Conditions
12:08 AM 32.0 °F 28.7 °F 27.7 °F 84% 30.27 in 10.0 mi NNW 3.5 mph - N/A   Clear
12:28 AM 31.5 °F 28.1 °F 26.8 °F 83% - 10.0 mi NNW 3.5 mph - N/A   Clear
12:49 AM 31.5 °F 25.8 °F 27.5 °F 85% 30.26 in 10.0 mi North 5.8 mph - N/A   Clear
1:09 AM 31.1 °F 25.4 °F 26.8 °F 84% 30.26 in 10.0 mi North 5.8 mph - N/A   Clear
1:29 AM 31.3 °F 27.9 °F 26.6 °F 83% 30.26 in 10.0 mi WNW 3.5 mph - N/A   Clear
1:49 AM 32.0 °F 27.5 °F 26.6 °F 80% 30.26 in 10.0 mi North 4.6 mph - N/A   Clear
2:09 AM 32.0 °F 28.7 °F 26.6 °F 80% 30.27 in 10.0 mi WNW 3.5 mph - N/A   Clear
2:29 AM 31.1 °F - 26.2 °F 82% 30.27 in 10.0 mi Calm Calm - N/A   Clear
2:49 AM 31.5 °F - 26.6 °F 82% 30.29 in 10.0 mi Calm Calm - N/A   Clear
3:09 AM 31.5 °F - 26.6 °F 82% 30.29 in 10.0 mi Calm Calm - N/A   Clear
3:29 AM 30.9 °F - 26.4 °F 83% 30.29 in 10.0 mi Calm Calm - N/A   Clear
3:49 AM 30.6 °F 27.1 °F 26.6 °F 85% 30.29 in 10.0 mi North 3.5 mph - N/A   Clear
4:09 AM 28.8 °F 25.0 °F 25.9 °F 89% 30.28 in 10.0 mi NW 3.5 mph - N/A   Clear
4:29 AM 30.9 °F - 26.8 °F 85% 30.29 in 10.0 mi Calm Calm - N/A   Clear
4:49 AM 30.6 °F - 26.6 °F 85% 30.29 in 10.0 mi Calm Calm - N/A   Clear
5:09 AM 30.2 °F - 26.4 °F 86% 30.29 in 10.0 mi Calm Calm - N/A   Clear
5:28 AM 30.0 °F 25.2 °F 26.4 °F 86% 30.28 in 10.0 mi North 4.6 mph - N/A   Clear
5:50 AM 30.2 °F - 26.6 °F 86% 30.29 in 10.0 mi Calm Calm - N/A   Clear
6:50 AM 30.2 °F 26.7 °F 24.8 °F 80% 30.31 in 10.0 mi NNW 3.5 mph - N/A   Clear
7:50 AM 30.2 °F - 26.6 °F 86% 30.34 in 10.0 mi Calm Calm - N/A   Clear
8:50 AM 32.0 °F 26.4 °F 26.6 °F 80% 30.33 in 10.0 mi NNE 5.8 mph - N/A   Clear
9:55 AM 33.8 °F - 28.4 °F 81% 30.36 in 10.0 mi Calm Calm - N/A   Clear
10:55 AM 35.6 °F - 26.6 °F 70% 30.34 in 10.0 mi Calm Calm - N/A   Overcast
11:50 AM 37.4 °F 33.8 °F 26.6 °F 65% 30.33 in 10.0 mi North 4.6 mph - N/A   Overcast
12:50 PM 37.4 °F - 26.6 °F 65% 30.30 in 10.0 mi Calm Calm - N/A   Overcast
1:50 PM 37.4 °F - 26.6 °F 65% 30.29 in 10.0 mi Calm Calm - N/A   Scattered Clouds
2:55 PM 39.2 °F - 26.6 °F 61% 30.30 in 10.0 mi Calm Calm - N/A   Mostly Cloudy
3:50 PM 37.4 °F 34.9 °F 26.6 °F 65% 30.30 in 10.0 mi West 3.5 mph - N/A   Mostly Cloudy
4:50 PM 37.4 °F - 26.6 °F 65% 30.31 in 10.0 mi Calm Calm - N/A   Mostly Cloudy
5:50 PM 35.6 °F - 26.6 °F 70% 30.32 in 10.0 mi Calm Calm - N/A   Mostly Cloudy
6:55 PM 32.0 °F - 28.4 °F 87% 30.34 in 10.0 mi Calm Calm - N/A   Mostly Cloudy
9:51 PM 33.1 °F - 29.7 °F 87% 30.34 in 10.0 mi Calm Calm - N/A   Clear
10:11 PM 32.9 °F - 29.3 °F 87% 30.34 in 10.0 mi Calm Calm - N/A   Clear
10:31 PM 33.3 °F - 30.2 °F 89% 30.34 in 10.0 mi Calm Calm - N/A   Clear
10:51 PM 33.4 °F - 29.3 °F 85% 30.34 in 10.0 mi Calm Calm - N/A   Clear
11:11 PM 33.8 °F - 28.6 °F 81% 30.34 in 10.0 mi Calm Calm - N/A   Scattered Clouds
11:31 PM 33.4 °F - 28.6 °F 82% 30.34 in 10.0 mi Calm Calm - N/A   Scattered Clouds
11:51 PM 32.5 °F - 28.4 °F 85% 30.33 in 10.0 mi Calm Calm - N/A   Scattered Clouds